Regional Weather Roundup
Issued by NWS

Home | Current Version | Previous Version | Text Only | Print | Product List | Glossary On
Versions: 1 2 3 4 5 6 7 8 9 10 11 12 13 14 15 16 17 18 19 20 21 22 23 24 25 26 27 28 29 30 31 32 33 34 35 36 37 38 39 40 41 42 43 44 45 46 47 48 49 50
000
ASUS43 KTOP 201808
RWRKS

WEATHER ROUNDUP FOR KANSAS
NATIONAL WEATHER SERVICE GOODLAND KS
1200 PM CST SAT DEC 20 2014

NOTE:  "FAIR" INDICATES FEW OR NO CLOUDS BELOW 12,000 FEET WITH NO
SIGNIFICANT WEATHER AND/OR OBSTRUCTIONS TO VISIBILITY.

KSZ001>006-013>018-027>032-041>047-201900-
NORTHWEST KANSAS

CITY           SKY/WX    TMP DP  RH WIND       PRES   REMARKS
GOODLAND       MOSUNNY   50  29  44 NW6       30.02F
6HR MIN TEMP:  28; 6HR MAX TEMP:  51;

HAYS           SUNNY     43  30  61 SW6       30.06F
HILL CITY      SUNNY     46  32  58 VRB5      30.04F
6HR MIN TEMP:  24; 6HR MAX TEMP:  46;

RUSSELL        SUNNY     44  37  76 SW8       30.05F
6HR MIN TEMP:  27; 6HR MAX TEMP:  44;

$$

KSZ061>065-074>080-084>089-201900-
SOUTHWEST KANSAS

CITY           SKY/WX    TMP DP  RH WIND       PRES   REMARKS
DODGE CITY     CLOUDY    35  32  88 S15       30.08F FOG     WCI  25
6HR MIN TEMP:  30; 6HR MAX TEMP:  37;

ELKHART          N/A    N/A N/A N/A MISG        N/A
GARDEN CITY    SUNNY     42  32  67 SW8       30.05F
6HR MIN TEMP:  22; 6HR MAX TEMP:  42; 6HR PCP: TRACE;

GREAT BEND     SUNNY     43  36  75 S12       30.09F
LIBERAL        CLOUDY    34  30  86 S10       30.11F VSB 1   WCI  26
PRATT          MOSUNNY   45  37  76 SW14      30.11F
$$

KSZ066>073-081>083-090>101-201900-
SOUTHEAST KANSAS

CITY           SKY/WX    TMP DP  RH WIND       PRES   REMARKS
CHANUTE        PTSUNNY   44  35  70 S13       30.20S
6HR MIN TEMP:  36; 6HR MAX TEMP:  45;

COFFEYVILLE    CLOUDY    43  34  70 SW9       30.22F
6HR MIN TEMP:  36; 6HR MAX TEMP:  45;

HUTCHINSON     MOSUNNY   48  39  71 S15       30.12F
6HR MIN TEMP:  30; 6HR MAX TEMP:  48;

MEDICINE LODGE   N/A     45  38  76 S12       30.12F
NEWTON         SUNNY     45  36  70 S17G23    30.15S
PARSONS        CLOUDY    43  35  73 SW9       30.22F
6HR MIN TEMP:  37; 6HR MAX TEMP:  45;

WICHITA INTL   MOSUNNY   47  38  71 S13       30.15F
6HR MIN TEMP:  32; 6HR MAX TEMP:  47;

WICHITA JABRA  SUNNY     46  37  71 S15       30.14F
6HR MIN TEMP:  32; 6HR MAX TEMP:  46;

WICHITA MCCONL SUNNY     47  38  72 S14       30.15F
WINFIELD       MOSUNNY   48  38  68 S14       30.18F
6HR MIN TEMP:  36; 6HR MAX TEMP:  48;

$$

KSZ007>012-019>026-033>040-048>060-102>105-201900-
NORTHEAST KANSAS

CITY           SKY/WX    TMP DP  RH WIND       PRES   REMARKS
CONCORDIA      SUNNY     35  31  85 SW3       30.08F
6HR MIN TEMP:  27; 6HR MAX TEMP:  35;

EMPORIA        SUNNY     43  37  79 SW17      30.14F
6HR MIN TEMP:  30; 6HR MAX TEMP:  44;

LAWRENCE       SUNNY     44  36  73 SW10      30.15F
6HR MIN TEMP:  32; 6HR MAX TEMP:  44;

MANHATTAN      SUNNY     44  38  79 SW12      30.10F
6HR MIN TEMP:  29; 6HR MAX TEMP:  45;

MARYSVILLE     CLOUDY    34  32  93 SW7       30.10F FOG
OLATHE IND     SUNNY     42  37  82 S12       30.15F
6HR MIN TEMP:  32; 6HR MAX TEMP:  42;

OLATHE EXE     SUNNY     42  36  79 S10       30.15F
6HR MIN TEMP:  33; 6HR MAX TEMP:  42;

SALINA         SUNNY     45  39  79 SW12      30.10F
6HR MIN TEMP:  32; 6HR MAX TEMP:  45;

TOPEKA BILLARD SUNNY     45  37  73 SW12      30.14F
6HR MIN TEMP:  31; 6HR MAX TEMP:  45;

TOPEKA FORBES  SUNNY     45  37  73 SW13      30.12F
6HR MIN TEMP:  33; 6HR MAX TEMP:  45;

$$


USA.gov is the U.S. government's official web portal to all federal, state and local government web resources and services.